Regional Weather Roundup
Issued by NWS

Home | Current Version | Previous Version | Graphics & Text | Print | Product List | Glossary On
Versions: 1 2 3 4 5 6 7 8 9 10 11 12 13 14 15 16 17 18 19 20 21 22 23 24 25 26 27
000
ASUS45 KBOI 280710
RWRID

IDAHO REGIONAL WEATHER ROUNDUP
NATIONAL WEATHER SERVICE BOISE ID
100 AM MDT WED JUN 28 2017

NOTE: "FAIR" INDICATES FEW OR NO CLOUDS BELOW 12000 FEET
WITH NO SIGNIFICANT WEATHER AND/OR OBSTRUCTIONS TO VISIBILITY

IDZ012-014-280800-
SOUTHWEST IDAHO


CITY           SKY/WX    TMP DP  RH WIND       PRES   REMARKS
BOISE          PTCLDY    72  46  39 SE5       29.79R
CALDWELL       PTCLDY    68  51  54 W10       29.79R
MOUNTAIN HOME  PTCLDY    66  52  61 E7        29.78F
$$

IDZ016-017-280800-
SOUTHCENTRAL IDAHO


CITY           SKY/WX    TMP DP  RH WIND       PRES   REMARKS
BURLEY         PTCLDY    57  50  77 SW5       29.86S
JEROME         PTCLDY    65  48  54 MISG      29.92R
TWIN FALLS     PTCLDY    62  46  55 S8        29.86S
$$

IDZ019>023-280800-
SOUTHEAST IDAHO


CITY           SKY/WX    TMP DP  RH WIND       PRES   REMARKS
IDAHO FALLS    CLEAR     52  49  89 CALM      29.94F
POCATELLO      CLEAR     58  48  69 E6        29.92F
REXBURG        CLEAR     55  48  77 NE6       29.94F
$$

IDZ006-010-011-018-031-032-280800-
CENTRAL IDAHO MOUNTAINS


CITY           SKY/WX    TMP DP  RH WIND       PRES   REMARKS
MCCALL         MOCLDY    57  46  66 SE5       29.94R
HAILEY         MOCLDY    59  34  38 N7        29.96S
STANLEY          N/A     52  42  69 CALM      30.06S
SALMON         CLOUDY    61  46  59 S7        29.94S
CHALLIS        CLOUDY    58  46  64 W3        30.00F
$$

IDZ002-004-006-007-026-280800-
NORTHERN IDAHO


CITY           SKY/WX    TMP DP  RH WIND       PRES   REMARKS
LEWISTON       MOCLDY    66  44  45 CALM      29.80R
LOWELL           N/A     60  51  72 CALM      29.83R
COEUR D`ALENE  CLEAR     60  49  66 S6        29.81F
MULLAN PASS    PTCLDY    50  36  58 NW3       29.96F
$$




USA.gov is the U.S. government's official web portal to all federal, state and local government web resources and services.